Probability
0 0 0 0 0 0 0 0 0 0 0 0 0 0 0 0 0 0 0 0 0 0 0 0 0 0 0 0 0 0 0 0 0 0 0 0 0 0 0 0 0 1 1 1
0 0 0 0 0 0 0 0 0 0 0 0 0 0 0 0 0 0 0 0 0 0 0 0 0 0 0 0 0 0 0 0 0 0 0 0 0 0 0 0 0 0 0 0
0 0 0 0 0 0 0 0 0 0 0 0 0 0 0 0 0 0 0 0 0 0 0 0 0 0 0 0 0 0 0 0 0 0 0 0 0 0 0 0 0 0 0 0
0 0 0 0 0 0 0 0 0 0 0 0 0 0 0 0 0 0 0 0 0 0 0 0 0 0 0 0 0 0 0 0 0 0 0 0 0 0 0 0 0 0 0 0
0 0 0 0 0 0 0 0 0 0 0 0 0 0 0 0 0 0 0 0 0 0 0 0 0 0 0 0 0 0 0 0 0 0 0 0 0 0 0 0 0 0 0 0
0 0 0 0 0 0 0 0 0 0 0 0 0 0 0 0 0 0 0 0 0 0 0 0 0 0 0 0 0 0 0 0 0 0 0 0 0 0 0 0 0 0 0 0
0 0 0 0 0 0 0 0 0 0 0 0 0 0 0 0 0 0 0 0 0 0 0 0 0 0 0 0 0 0 0 0 0 0 0 0 0 0 0 0 0 0 0 0
0 0 0 0 0 0 0 0 0 0 0 0 0 0 0 0 0 0 0 0 0 0 0 0 0 0 0 0 0 0 0 0 0 0 0 0 0 0 0 0 0 0 0 0
0 0 0 0 0 0 0 0 0 0 0 0 0 0 0 0 0 0 0 0 0 0 0 0 0 0 0 0 0 0 0 0 0 0 0 0 0 0 0 0 0 0 0 0
0 0 0 0 0 0 0 0 0 0 0 0 0 0 0 0 0 0 0 0 0 0 0 0 0 0 0 0 0 0 0 0 0 0 0 0 0 0 0 0 0 0 0 0
0 0 0 0 0 0 0 0 0 0 0 0 0 0 0 0 0 0 0 0 0 0 0 0 0 0 0 0 0 0 0 0 0 0 0 0 0 0 0 0 0 0 0 0
0 0 0 0 0 0 0 0 0 0 0 0 0 0 0 0 0 0 0 0 0 0 0 0 0 0 0 0 0 0 0 0 0 0 0 0 0 0 0 0 0 0 0 0
0 0 0 0 0 0 0 0 0 0 0 0 0 0 0 0 0 0 0 0 0 0 0 0 0 0 0 0 0 0 0 0 0 0 0 0 0 0 0 0 0 0 0 0
0 0 0 0 0 0 0 0 0 0 0 0 0 0 0 0 0 0 0 0 0 0 0 0 0 0 0 0 0 0 0 0 0 0 0 0 0 0 0 0 0 0 0 0
0 0 0 0 0 0 0 0 0 0 0 0 0 0 0 0 0 0 0 0 0 0 0 0 0 0 0 0 0 0 0 0 0 0 0 0 0 0 0 0 0 0 0 0
0 0 0 0 0 0 0 0 0 0 0 0 0 0 0 0 0 0 0 0 0 0 0 0 0 0 0 0 0 0 0 0 0 0 0 0 0 0 0 0 0 0 0 0
0 0 0 0 0 0 0 0 0 0 0 0 0 0 0 0 0 0 0 0 0 0 0 0 0 0 0 0 0 0 0 0 0 0 0 0 0 0 0 0 0 0 0 0
0 0 0 0 0 0 0 0 0 0 0 0 0 0 0 0 0 0 0 0 0 0 0 0 0 0 0 0 0 0 0 0 0 0 0 0 0 0 0 0 0 0 0 0
0 0 0 0 0 0 0 0 0 0 0 0 0 0 0 0 0 0 0 0 0 0 0 0 0 0 0 0 0 0 0 0 0 0 0 0 0 0 0 0 0 0 0 0
0 0 0 0 0 0 0 0 0 0 0 0 0 0 0 0 0 0 0 0 0 0 0 0 0 0 0 0 0 0 0 0 0 0 0 0 0 0 0 0 0 0 0 0
0 0 0 0 0 0 0 0 0 0 0 0 0 0 0 0 0 0 0 0 0 0 0 0 0 0 0 0 0 0 0 0 0 0 0 0 0 0 0 0 0 0 0 0
0 0 0 0 0 0 0 0 0 0 0 0 0 0 0 0 0 0 0 0 0 0 0 0 0 0 0 0 0 0 0 0 0 0 0 0 0 0 0 0 0 0 0 0
0 0 0 0 0 0 0 0 0 0 0 0 0 0 0 0 0 0 0 0 0 0 0 0 0 0 0 0 0 0 0 0 0 0 0 0 0 0 0 0 0 0 0 0
0 0 0 0 0 0 0 0 0 0 0 0 0 0 0 0 0 0 0 0 0 0 0 0 0 0 0 0 0 0 0 0 0 0 0 0 0 0 0 0 0 0 0 0
0 0 0 0 0 0 0 0 0 0 0 0 0 0 0 0 0 0 0 0 0 0 0 0 0 0 0 0 0 0 0 0 0 0 0 0 0 0 0 0 0 0 0 0
0 0 0 0 0 0 0 0 0 0 0 0 0 0 0 0 0 0 0 0 0 0 0 0 0 0 0 0 0 0 0 0 0 0 0 0 0 0 0 0 0 0 0 0
Wind_Speed
5 7 4 1 1 3 4 4 2 1 1 1 2 4 5 4 4 6 6 5 5 6 4 3 4 4 3 3 3 3 2 1 2 2 1 1 0 0 1 1 1 2 2 3
7 5 3 2 1 4 4 4 2 1 1 1 1 4 5 4 5 6 7 7 6 4 3 3 4 4 4 4 4 3 3 2 2 2 2 2 2 1 1 0 1 1 2 2
5 2 3 3 5 6 4 2 2 1 2 2 1 5 3 3 2 2 3 4 5 6 6 5 5 5 4 4 5 4 4 3 3 3 2 2 1 1 1 1 1 1 1 1
4 4 3 5 4 3 1 1 2 2 3 2 1 2 5 2 2 2 3 3 4 4 4 4 5 5 5 5 4 4 3 3 3 3 3 3 2 2 2 1 1 1 1 1
2 3 4 4 2 1 2 0 2 2 2 2 1 1 7 2 2 3 3 4 4 4 4 5 6 6 5 4 3 3 3 3 3 3 4 3 3 2 1 1 1 1 1 1
1 1 1 0 1 1 1 3 4 4 4 1 2 3 6 3 4 3 3 3 4 4 3 3 3 3 2 2 2 2 3 3 3 3 4 4 5 4 2 2 2 2 1 1
5 4 3 2 3 4 4 5 4 5 4 4 2 2 8 5 4 4 5 4 3 3 3 2 2 3 3 3 3 3 3 4 4 4 4 5 5 5 5 4 3 3 2 2
2 3 3 2 1 0 1 4 5 3 3 4 3 4 6 4 1 2 3 4 3 2 2 3 3 3 3 3 3 3 4 4 3 4 4 4 4 3 3 4 3 3 3 3
2 2 3 1 0 1 1 1 3 5 1 2 5 6 5 1 2 2 3 3 2 2 2 2 2 2 2 3 3 4 4 4 3 4 3 3 4 4 4 4 4 3 3 3
3 1 3 2 2 2 2 3 4 3 2 2 5 4 4 3 3 2 3 3 3 2 2 2 2 2 2 3 3 2 3 4 4 3 3 3 4 4 4 4 4 4 4 4
2 3 2 2 1 2 1 1 3 3 3 4 3 7 5 5 5 5 4 4 4 3 3 3 2 2 2 1 1 2 3 3 3 4 3 3 3 3 3 4 5 5 4 4
1 4 1 4 3 2 3 3 4 3 3 3 2 9 4 3 4 5 4 4 3 3 3 2 2 1 1 2 2 2 3 3 4 4 3 4 3 3 3 4 5 4 4 4
2 4 2 4 3 2 1 2 3 3 3 3 4 8 3 1 1 2 3 3 3 2 2 1 1 1 2 2 2 3 3 4 4 3 3 3 4 4 5 5 5 4 4 4
3 2 5 6 5 3 4 4 3 4 3 5 8 7 4 3 3 3 3 3 3 2 2 2 2 2 3 3 3 3 4 4 3 3 3 4 5 5 5 5 4 5 4 5
3 2 3 5 5 4 6 7 7 8 8 8 8 8 8 7 6 4 3 3 2 2 2 1 2 2 3 3 4 4 4 4 3 3 4 5 5 5 4 4 5 5 5 6
2 1 1 4 3 4 7 10 10 10 9 10 8 10 7 5 3 3 3 3 3 3 3 2 3 3 4 4 5 4 5 5 3 4 5 5 4 4 5 5 5 4 5 5
2 3 1 4 5 6 9 10 10 7 7 8 11 9 3 3 3 4 4 3 4 4 3 4 4 5 5 5 4 5 5 4 4 4 5 4 4 5 5 5 4 5 5 5
5 4 2 2 3 7 8 2 6 6 6 7 6 4 3 4 3 3 3 3 3 3 3 4 4 5 5 4 4 4 4 4 4 4 5 5 4 5 5 5 5 6 5 5
4 6 3 1 3 10 9 3 4 5 5 4 6 5 3 1 1 2 3 3 3 4 4 4 5 5 4 4 4 4 4 4 4 5 5 5 5 5 5 5 6 5 5 5
3 4 4 3 4 8 6 1 1 3 4 3 4 4 3 3 0 5 3 2 3 4 3 4 4 3 4 4 3 3 4 4 5 6 6 6 5 5 6 7 6 5 5 6
4 3 5 5 6 11 7 2 3 3 6 2 3 4 4 5 6 4 3 3 3 4 4 3 3 3 4 4 3 4 5 6 6 6 6 5 5 5 6 6 5 4 5 4
9 8 8 6 7 12 4 6 6 7 2 2 3 3 4 4 4 3 4 4 4 4 4 4 3 5 5 4 3 5 6 6 5 5 5 6 6 5 5 5 5 4 4 5
9 10 8 11 11 5 4 6 4 4 4 3 3 3 3 4 4 4 4 4 4 4 4 4 4 5 5 4 4 6 7 6 5 5 6 6 6 5 5 5 5 4 4 4
5 4 5 6 9 6 5 4 3 3 4 4 4 4 3 4 5 5 5 4 4 4 4 4 4 5 6 6 5 6 7 5 5 6 7 6 5 6 5 4 4 4 5 5
7 5 5 8 7 4 5 5 5 4 3 3 3 3 4 4 4 4 4 5 5 5 4 4 5 6 7 7 7 6 6 5 5 6 6 6 5 5 5 5 5 6 6 7
7 9 9 10 7 6 6 4 4 5 4 4 4 4 3 4 5 5 5 5 5 5 5 5 6 6 7 7 8 7 6 5 5 6 6 5 5 5 5 5 6 8 10 13
Wind_Direction
25 59 56 334 184 172 145 125 125 238 287 99 217 260 266 244 214 212 211 206 208 217 209 180 168 156 145 144 145 152 152 158 126 111 108 103 96 24 25 13 28 23 9 14
44 37 322 312 67 100 106 107 91 2 355 119 270 282 272 247 223 213 206 208 206 206 194 183 175 171 170 171 175 173 177 177 170 161 160 164 170 186 211 303 8 13 11 7
95 296 318 54 58 77 49 130 152 155 353 24 18 318 296 278 239 219 206 200 195 192 196 193 184 190 188 194 197 191 193 191 189 170 138 117 83 32 2 332 325 335 350 360
54 341 31 60 39 67 73 335 125 102 76 331 78 290 286 278 279 229 207 192 199 198 193 192 190 195 202 212 208 199 196 197 194 171 161 169 176 200 225 225 251 301 328 339
28 2 43 52 351 48 164 297 76 80 96 9 12 159 284 302 245 246 224 204 203 198 192 196 198 199 205 206 207 210 202 207 200 182 179 179 193 209 225 242 275 295 304 307
40 7 56 359 318 20 115 53 48 45 64 344 241 169 273 248 227 219 207 196 190 189 188 194 202 191 204 210 212 216 209 221 211 196 192 189 200 209 217 240 252 270 279 288
9 359 353 16 27 11 56 77 42 10 9 260 284 194 252 262 245 200 188 189 188 178 165 185 200 203 213 217 221 219 217 230 222 209 207 204 208 207 214 227 232 240 251 258
72 323 320 359 111 178 17 124 146 181 225 286 325 245 260 291 315 138 148 158 157 166 190 201 210 213 219 230 229 225 228 238 231 220 222 217 214 213 224 226 224 229 233 239
129 257 306 321 330 130 107 102 158 128 145 286 286 286 302 52 76 102 119 128 164 204 222 232 243 235 235 241 238 229 232 243 243 236 233 231 224 220 228 231 225 232 235 235
134 155 295 318 28 12 134 142 89 113 147 265 295 274 247 224 202 170 165 176 204 225 250 261 255 247 244 243 248 252 239 242 248 244 237 237 234 230 230 227 229 232 236 234
93 124 311 349 228 212 149 126 115 118 156 164 262 271 231 204 188 178 193 202 209 218 234 246 252 257 266 283 279 269 263 260 260 251 244 248 248 239 234 233 236 233 234 228
92 116 249 266 272 242 198 190 151 155 221 187 205 269 282 192 181 179 198 217 226 233 236 241 252 271 283 288 289 280 272 266 261 254 247 248 250 243 240 244 243 233 233 231
106 110 43 342 329 335 255 221 177 143 132 170 194 263 309 129 171 199 204 226 238 248 252 261 264 267 276 281 286 285 279 270 268 260 253 255 254 246 245 247 246 237 235 236
101 138 181 209 227 204 238 240 198 155 181 218 226 247 276 252 242 247 238 236 238 252 250 261 268 273 279 280 278 280 282 278 275 264 254 255 255 248 246 247 246 239 233 232
105 192 243 255 263 239 235 236 217 208 205 212 237 231 244 238 234 232 230 228 227 253 270 269 265 274 282 285 283 281 282 282 278 273 265 259 259 255 251 249 247 240 234 233
107 173 312 294 291 277 265 246 228 228 225 233 251 262 248 239 220 225 231 216 221 245 253 263 275 282 283 282 278 280 281 280 276 273 270 270 269 264 258 254 248 242 241 239
159 152 169 279 314 334 275 238 204 208 209 199 227 243 233 218 226 225 219 212 224 242 250 263 267 265 270 274 274 275 274 278 275 272 274 275 272 268 263 258 252 247 243 238
155 146 165 282 345 254 248 241 188 204 231 214 221 227 206 213 226 227 199 202 234 250 258 266 265 267 269 269 276 278 279 277 273 274 277 277 274 271 269 261 253 249 244 238
156 151 163 195 270 279 289 259 176 184 259 222 212 224 228 211 49 296 221 205 228 246 255 255 256 260 266 273 278 287 287 282 280 278 279 277 273 273 273 265 259 253 246 244
102 128 153 182 229 251 257 234 149 115 270 246 182 199 199 134 243 262 254 272 278 276 267 263 268 274 280 281 282 287 287 285 277 273 273 274 270 267 267 265 263 256 245 245
146 167 190 203 236 263 256 210 123 177 246 209 178 191 182 194 216 239 269 279 277 280 281 279 281 277 273 275 275 275 278 272 271 274 276 276 271 265 265 267 261 259 253 251
178 178 192 181 212 252 220 149 183 216 218 182 186 201 208 226 247 258 265 273 282 287 288 285 282 284 283 274 265 272 274 273 278 279 279 277 274 272 273 268 268 260 249 251
200 193 188 195 215 242 190 199 213 185 190 199 201 217 214 230 246 256 262 269 273 273 277 278 272 282 287 278 257 265 275 281 284 284 281 279 278 272 265 261 265 266 249 246
242 193 193 241 256 249 239 239 232 203 202 208 209 215 214 233 251 261 266 270 272 272 276 278 280 283 286 284 270 260 271 276 275 279 282 280 278 280 273 261 251 250 247 245
223 188 211 246 261 276 254 225 212 207 209 222 229 223 225 237 257 259 265 270 268 270 272 270 270 275 280 285 281 277 271 270 275 280 280 279 272 272 276 267 251 249 242 235
202 198 206 234 224 213 236 224 202 203 217 223 228 244 247 236 250 262 266 270 270 270 271 274 274 275 280 283 283 283 274 262 267 280 280 275 274 272 269 274 282 262 255 261